Terug naar catalogus

ONEWEB-0172

ActiefCommunicatiePO
NORAD 48071·PAYLOAD·🇬🇧 United Kingdom

Gelanceerd Mar 25, 2021 vanaf Vostochny Cosmodrome

Loading…

Volgende Passages (komende 24 uur)

TLE

VersSource: CelesTrak SupGP

Epoch: Sep 14, 2026, 18:09 UTC

1 48071C 21025AF  26257.75676343 -.00001149  00000+0 -31495-2 0  2570
2 48071  87.8922 302.4064 0001793  92.4928   9.6176 13.13472213    18

Volg ONEWEB-0172 in realtime met AllMySat

Download on the App Store